Location: Newark
(5.8900°S, 42.6378°W)
Time: 05:58:08
(UTC+00:00)

Explorer 7 - All Passes

Search period start: 20 September 2019 00:00
Search period end: 30 September 2019 00:00
Orbit: 485 x 680 km, 50.3° (Epoch: 19 September)

Date Brightness Start Highest point End Pass type
(mag) Time Alt. Az. Time Alt. Az. Time Alt. Az.
20 Sep - 10:16:02 10° NNW 10:20:31 43° NE 10:24:47 10° SE daylight
20 Sep - 11:58:41 10° W 12:00:57 14° SW 12:03:09 10° SSW daylight
20 Sep - 22:16:01 10° SW 22:19:43 45° NW 22:23:36 10° NNE visible
21 Sep - 10:20:45 10° NW 10:25:30 90° SW 10:29:59 10° SE daylight
21 Sep - 20:41:37 10° S 20:44:25 19° SE 20:47:15 10° E daylight
21 Sep - 22:21:47 10° WSW 22:24:43 20° NW 22:27:45 10° N visible
22 Sep - 08:47:30 10° NNE 08:50:01 14° NE 08:52:28 10° E daylight
22 Sep - 10:25:59 10° NW 10:30:28 43° SW 10:34:45 10° SSE daylight
22 Sep - 20:45:48 10° SSW 20:49:24 41° SE 20:53:08 10° NE daylight
23 Sep - 08:50:57 10° N 08:55:02 28° NE 08:58:59 10° ESE daylight
23 Sep - 10:31:49 10° WNW 10:35:27 22° SW 10:38:58 10° S daylight
23 Sep - 20:50:35 10° SW 20:54:23 81° NW 20:58:19 10° NE daylight
24 Sep - 08:55:18 10° NNW 09:00:01 56° NE 09:04:33 10° SE daylight
24 Sep - 10:39:03 10° WSW 10:40:30 11° SW 10:41:56 10° SSW daylight
24 Sep - 19:17:47 10° SSE 19:19:02 11° SE 19:20:16 10° ESE daylight
24 Sep - 20:55:55 10° WSW 20:59:21 33° NW 21:02:55 10° NNE daylight
25 Sep - 09:00:11 10° NW 09:04:59 71° SW 09:09:36 10° SSE daylight
25 Sep - 19:20:58 10° S 19:24:03 24° SE 19:27:12 10° ENE daylight
25 Sep - 21:02:04 10° W 21:04:21 15° NW 21:06:42 10° NNW visible
26 Sep - 07:26:13 10° N 07:29:32 18° NE 07:32:45 10° E visible
26 Sep - 09:05:35 10° WNW 09:09:58 35° SW 09:14:12 10° SSE daylight
26 Sep - 19:25:22 10° SSW 19:29:03 55° SE 19:32:48 10° NE daylight
27 Sep - 07:30:05 10° NNW 07:34:31 35° NE 07:38:50 10° ESE visible
27 Sep - 09:11:40 10° W 09:14:59 18° SW 09:18:13 10° S daylight
27 Sep - 19:30:19 10° SW 19:34:02 59° NW 19:37:48 10° NNE daylight
28 Sep - 07:34:37 10° NNW 07:39:29 71° NE 07:44:12 10° SE visible
28 Sep - 17:56:34 10° SSE 17:58:41 14° SE 18:00:47 10° E daylight
28 Sep - 19:35:52 10° WSW 19:38:59 25° NW 19:42:11 10° N daylight
29 Sep - 06:02:21 10° NNE 06:03:59 12° NE 06:05:38 10° ENE visible
29 Sep - 07:39:40 10° NW 07:44:27 57° SW 07:49:07 10° SSE visible
29 Sep - 18:00:22 10° SSW 18:03:43 30° SE 18:07:04 10° ENE daylight
29 Sep - 19:42:43 10° WNW 19:43:59 11° NW 19:45:16 10° NNW daylight
